Погода в Дубровном

Россия / Тюменская область     57°57′09″N   69°25′48″E
темп.,
°C
ветер,
м/с
пор.,
м/с
влажн.,
%
обл.,
%
осадки,
мм/ч
давл.,
гПа
погр.,
м
23 октября, сб
сб2323:00+3ю41194100 0.0 1001519
02:00+4ю51394100 0.7 998543
05:00+6ююз51495100 4.3 996734
08:00+7юз51495100 1.8 996855
11:00+9зюз6128563 2.1 9981064
14:00+10зюз5128152 0.0 10001083
17:00+9юз61383100 0.2 1001889
20:00+8зюз6147799 0.2 10021076
24 октября, вс
вс2423:00+7зюз614755 0.2 10041119
02:00+6з613765 0.0 10061002
05:00+5зюз512825 0.0 1008726
08:00+4зюз412875 0.0 1010613
11:00+7зюз497774 0.0 1010849
14:00+7зюз487469 0.0 1011895
17:00+6ю2284100 0.0 101033
20:00+6юв2794100 1.6 1007327
25 октября, пн
пн2523:00+7ююв31197100 6.0 1001681
02:00+9юз61381100 0.9 9991411
05:00+3з61296100 1.3 1004845
08:00+4з41195100 0.6 10071051
11:00+6зюз5970100 0.8 10091364
14:00+6юз3666100 0.0 10101354
17:00+5ююз3774100 0.1 1010370
20:00+4ююз3881100 0.0 1009414
26 октября, вт
вт2623:00+4ю3884100 0.0 1007503
02:00+3ююз2597100 0.7 1004481
05:00+2з2698100 1.6 1001478
08:00+1сз61095100 0.4 1000737
11:000сз61179100 0.6 10021217
14:000зсз71374100 0.1 10051426
17:00−1зсз71373100 0.3 10091344
20:00−2зсз61176100 0.0 10121085
27 октября, ср
ср2723:00−2з5117494 0.1 10141173
02:00−3з410745 0.0 1016752
05:00−3зюз4107737 0.0 1017624
08:00−3зюз39815 0.0 1018528
11:000зюз46635 0.0 1019879
14:00+1юз3561100 0.0 10181195
17:00−1ю269097 0.0 1018278
20:00−1ю3897100 0.1 1017410